Regional Weather Roundup
Issued by NWS

Home | Current Version | Previous Version | Text Only | Print | Product List | Glossary On
Versions: 1 2 3 4 5 6 7 8 9 10 11 12 13 14 15 16 17 18 19 20 21 22 23 24 25 26 27 28 29 30 31 32 33 34 35 36 37 38 39 40 41 42 43 44 45 46 47 48 49 50
000
ASUS45 KREV 231610
RWRNV
NEVADA REGIONAL WEATHER ROUNDUP
NATIONAL WEATHER SERVICE RENO NV
900 AM PDT SAT AUG 23 2014

NOTE: "FAIR" INDICATES FEW OR NO CLOUDS BELOW 12,000 FEET WITH NO
SIGNIFICANT WEATHER AND/OR OBSTRUCTIONS TO VISIBILITY.

NVZ001-003-004-231700-
WESTERN NEVADA

CITY           SKY/WX    TMP DP  RH WIND       PRES   REMARKS
RENO           MOSUNNY   64  36  35 CALM      30.14S
CARSON CITY    FAIR      61  36  39 SW3       30.15S
MINDEN         FAIR      59  37  44 CALM      30.16
SLIDE MTN        N/A     46  32  57 SE8         N/A
FALLON         SUNNY     67  29  24 N5        30.11R
LOVELOCK       SUNNY     66  32  28 N9        30.11S
HAWTHORNE      SUNNY     70  28  21 NW16      30.11R
$$

NVZ002-CAZ072-073-231700-
NORTHERN AND CENTRAL SIERRA

CITY           SKY/WX    TMP DP  RH WIND       PRES   REMARKS
S. LAKE TAHOE  SUNNY     58  35  42 CALM      30.19S
SQUAW VLY 8000   N/A     50  37  62 CALM        N/A
SUSANVILLE     SUNNY     63  36  36 CALM      30.15
BLUE CANYON    SUNNY     66  39  37 SE7       30.14R
MAMMOTH LAKES  FAIR      61  28  29 CALM      30.22S
BRIDGEPORT     FAIR      53  30  41 CALM      30.20S
$$

NVZ030-031-036-231700-
NORTHERN NEVADA

CITY           SKY/WX    TMP DP  RH WIND       PRES   REMARKS
ELKO           SUNNY     60  37  42 VRB5      30.13R
WINNEMUCCA     SUNNY     63  36  36 CALM      30.14R
WENDOVER       SUNNY     61  46  59 SE5       30.08S
$$

NVZ035-037-231700-
CENTRAL NEVADA

CITY           SKY/WX    TMP DP  RH WIND       PRES   REMARKS
ELY            SUNNY     58  47  66 CALM      30.15R
EUREKA           N/A     62  37  39 NE3       30.15S
$$

NVZ013-014-231700-
SOUTH CENTRAL NEVADA

CITY           SKY/WX    TMP DP  RH WIND       PRES   REMARKS
TONOPAH        SUNNY     69  34  27 N10       30.12S
$$

NVZ017-020-022-231700-
SOUTHERN NEVADA

CITY           SKY/WX    TMP DP  RH WIND       PRES   REMARKS
LAS VEGAS      SUNNY     83  43  24 S16       29.88R
N. LAS VEGAS   SUNNY     80  48  32 SE5       29.91R
NELLIS AFB     SUNNY     83  47  28 S13       29.90R
HENDERSON      SUNNY     81  44  26 S16       29.94R
MERCURY        SUNNY     77  45  32 SW9       29.98R
$$


USA.gov is the U.S. government's official web portal to all federal, state and local government web resources and services.